North Bend, OR

11:58 PM PDT on August 22, 2017 (GMT -0700)
North Bend Municipal

Weather History for KOTH - August, 2012

Change the Weather History Date:

Saturday, August 4, 2012

  Actual Average Record
Temperature  
Mean Temperature 59 °F 59 °F  
Max Temperature 64 °F 65 °F 85 °F (1932)
Min Temperature 54 °F 53 °F 41 °F (1921)
Degree Days  
Heating Degree Days 6 6  
Month to date heating degree days 26 24  
Since 1 June heating degree days 432 488  
Since 1 July heating degree days 180 221  
Cooling Degree Days 0 0  
Month to date cooling degree days 0 0  
Year to date cooling degree days 0 0  
Since 1 June cooling degree days 0 0  
Growing Degree Days 8 (Base 50)    
Moisture  
Dew Point 55 °F    
Average Humidity 89    
Maximum Humidity 100    
Minimum Humidity 72    
Precipitation  
Precipitation 0.00 in 0.01 in 0.40 in (1943)
Month to date precipitation 0.00 0.04  
Year to date precipitation 28.80 36.66  
Sea Level Pressure  
Sea Level Pressure 29.86 in    
Wind  
Wind Speed 6 mph (West)    
Max Wind Speed 15 mph    
Max Gust Speed -    
Visibility 6 miles    
Events      
T = Trace of Precipitation, MM = Missing Value Source: NWS Daily Summary

Daily Weather History Graph

Daily Weather History Graph

Search for Another Location

Airport or City:

Trip Planner

Search our weather history database for the weather conditions in past years. The results will help you decide how hot, cold, wet, or windy it might be!

Date:

Astronomy

Aug. 04, 2012 Rise Set
Actual Time 6:10 AM PDT 8:34 PM PDT
Civil Twilight 5:38 AM PDT 9:06 PM PDT
Nautical Twilight 4:58 AM PDT 9:46 PM PDT
Astronomical Twilight 4:13 AM PDT 10:30 PM PDT
Moon 9:38 PM PDT (8/4) 9:11 AM PDT (8/4)
Length of Visible Light 15h 28m
Length of Day
14h 24m
Waning Gibbous, 92% of the Moon is Illuminated
Aug 4
Waning Gibbous
Aug 9
Last Quarter
Aug 17
New
Aug 24
First Quarter
Aug 31
Full

Hourly Weather History & Observations

Time (PDT) Temp. Dew Point Humidity Pressure Visibility Wind Dir Wind Speed Gust Speed Precip Events Conditions
12:15 AM 55.4 °F 55.4 °F 100% 29.85 in 4.0 mi Calm Calm - N/A   Overcast
12:35 AM 55.4 °F 55.4 °F 100% 29.84 in 8.0 mi West 3.5 mph - N/A   Overcast
12:55 AM 55.4 °F 55.4 °F 100% 29.84 in 7.0 mi West 3.5 mph - N/A   Overcast
1:15 AM 53.6 °F 53.6 °F 100% 29.84 in 1.5 mi West 4.6 mph - N/A   Overcast
1:35 AM 53.6 °F 53.6 °F 100% 29.84 in 1.0 mi West 3.5 mph - N/A   Overcast
1:55 AM 53.6 °F 53.6 °F 100% 29.83 in 4.0 mi West 3.5 mph - N/A   Overcast
2:15 AM 53.6 °F 53.6 °F 100% 29.83 in 1.8 mi Calm Calm - N/A   Overcast
2:35 AM 53.6 °F 53.6 °F 100% 29.83 in 0.5 mi Calm Calm - N/A   Overcast
2:55 AM 55.4 °F 55.4 °F 100% 29.83 in 0.8 mi Calm Calm - N/A   Overcast
3:15 AM 55.4 °F 55.4 °F 100% 29.82 in 0.8 mi Calm Calm - N/A   Overcast
3:35 AM 55.4 °F 55.4 °F 100% 29.82 in 0.5 mi Calm Calm - N/A   Overcast
3:55 AM 53.6 °F 53.6 °F 100% 29.82 in 0.5 mi Calm Calm - N/A   Overcast
4:15 AM 53.6 °F 53.6 °F 100% 29.82 in 1.0 mi Calm Calm - N/A   Overcast
4:35 AM 55.4 °F 55.4 °F 100% 29.82 in 0.5 mi Calm Calm - N/A   Overcast
4:55 AM 53.6 °F 53.6 °F 100% 29.81 in 0.8 mi Calm Calm - N/A   Overcast
5:15 AM 53.6 °F 53.6 °F 100% 29.81 in 0.5 mi Calm Calm - N/A   Overcast
5:35 AM 55.4 °F 53.6 °F 94% 29.81 in 0.2 mi Calm Calm - N/A   Overcast
5:55 AM 55.4 °F 53.6 °F 94% 29.81 in 0.2 mi Calm Calm - N/A   Overcast
6:15 AM 53.6 °F 53.6 °F 100% 29.81 in 0.2 mi Calm Calm - N/A   Overcast
6:35 AM 53.6 °F 53.6 °F 100% 29.81 in 0.2 mi Calm Calm - N/A   Overcast
6:55 AM 55.4 °F 55.4 °F 100% 29.81 in 0.2 mi Calm Calm - N/A   Overcast
7:15 AM 55.4 °F 55.4 °F 100% 29.82 in 0.2 mi Calm Calm - N/A   Overcast
7:35 AM 55.4 °F 55.4 °F 100% 29.82 in 0.5 mi Calm Calm - N/A   Overcast
7:55 AM 55.4 °F 55.4 °F 100% 29.83 in 2.5 mi Calm Calm - N/A   Scattered Clouds
8:15 AM 55.4 °F 53.6 °F 94% 29.83 in 2.5 mi West 3.5 mph - N/A   Scattered Clouds
8:35 AM 55.4 °F 55.4 °F 100% 29.83 in 4.0 mi West 6.9 mph - N/A   Scattered Clouds
8:55 AM 55.4 °F 53.6 °F 94% 29.84 in 4.0 mi West 6.9 mph - N/A   Scattered Clouds
9:15 AM 55.4 °F 53.6 °F 94% 29.84 in 5.0 mi West 5.8 mph - N/A   Partly Cloudy
9:35 AM 57.2 °F 53.6 °F 88% 29.84 in 5.0 mi NW 3.5 mph - N/A   Partly Cloudy
9:55 AM 60.8 °F 55.4 °F 82% 29.84 in 5.0 mi Calm Calm - N/A   Partly Cloudy
10:15 AM 62.6 °F 55.4 °F 77% 29.85 in 5.0 mi West 5.8 mph - N/A   Clear
10:35 AM 62.6 °F 55.4 °F 77% 29.85 in 5.0 mi West 9.2 mph - N/A   Clear
10:55 AM 60.8 °F 55.4 °F 82% 29.86 in 5.0 mi West 8.1 mph - N/A   Clear
11:15 AM 62.6 °F 55.4 °F 77% 29.86 in 10.0 mi West 10.4 mph - N/A   Clear
11:35 AM 62.6 °F 55.4 °F 77% 29.86 in 10.0 mi West 10.4 mph - N/A   Clear
11:55 AM 60.8 °F 53.6 °F 77% 29.87 in 10.0 mi West 12.7 mph - N/A   Clear
12:15 PM 62.6 °F 53.6 °F 72% 29.87 in 10.0 mi West 15.0 mph - N/A   Clear
12:35 PM 64.4 °F 53.6 °F 68% 29.87 in 10.0 mi West 15.0 mph - N/A   Clear
12:55 PM 62.6 °F 53.6 °F 72% 29.88 in 10.0 mi West 15.0 mph - N/A   Clear
1:15 PM 64.4 °F 55.4 °F 73% 29.88 in 10.0 mi West 13.8 mph - N/A   Clear
1:35 PM 62.6 °F 55.4 °F 77% 29.88 in 10.0 mi West 11.5 mph - N/A   Clear
1:55 PM 64.4 °F 55.4 °F 73% 29.89 in 10.0 mi West 12.7 mph - N/A   Clear
2:15 PM 64.4 °F 55.4 °F 73% 29.89 in 10.0 mi West 12.7 mph - N/A   Clear
2:35 PM 64.4 °F 55.4 °F 73% 29.89 in 10.0 mi West 13.8 mph - N/A   Clear
2:55 PM 64.4 °F 55.4 °F 73% 29.89 in 10.0 mi West 13.8 mph - N/A   Clear
3:15 PM 64.4 °F 55.4 °F 73% 29.89 in 10.0 mi West 12.7 mph - N/A   Clear
3:35 PM 62.6 °F 55.4 °F 77% 29.89 in 10.0 mi West 12.7 mph - N/A   Clear
3:55 PM 62.6 °F 55.4 °F 77% 29.89 in 10.0 mi West 11.5 mph - N/A   Clear
4:15 PM 64.4 °F 55.4 °F 73% 29.89 in 10.0 mi West 11.5 mph - N/A   Clear
4:35 PM 64.4 °F 55.4 °F 73% 29.89 in 10.0 mi West 10.4 mph - N/A   Clear
4:55 PM 64.4 °F 55.4 °F 73% 29.89 in 10.0 mi West 10.4 mph - N/A   Clear
5:15 PM 62.6 °F 55.4 °F 77% 29.89 in 10.0 mi West 11.5 mph - N/A   Clear
5:35 PM 62.6 °F 55.4 °F 77% 29.88 in 10.0 mi West 10.4 mph - N/A   Clear
5:55 PM 62.6 °F 55.4 °F 77% 29.88 in 10.0 mi WNW 6.9 mph - N/A   Clear
6:15 PM 62.6 °F 55.4 °F 77% 29.88 in 10.0 mi WNW 6.9 mph - N/A   Clear
6:35 PM 59.0 °F 55.4 °F 88% 29.87 in 10.0 mi WNW 9.2 mph - N/A   Clear
6:55 PM 57.2 °F 55.4 °F 94% 29.87 in 10.0 mi West 10.4 mph - N/A   Clear
7:15 PM 57.2 °F 55.4 °F 94% 29.87 in 10.0 mi West 8.1 mph - N/A   Clear
7:35 PM 57.2 °F 55.4 °F 94% 29.88 in 10.0 mi West 8.1 mph - N/A   Clear
7:55 PM 57.2 °F 55.4 °F 94% 29.88 in 10.0 mi West 8.1 mph - N/A   Clear
8:15 PM 55.4 °F 53.6 °F 94% 29.89 in 10.0 mi West 8.1 mph - N/A   Clear
8:35 PM 55.4 °F 53.6 °F 94% 29.89 in 10.0 mi WNW 5.8 mph - N/A   Clear
8:55 PM 55.4 °F 53.6 °F 94% 29.90 in 10.0 mi West 5.8 mph - N/A   Clear
9:15 PM 55.4 °F 53.6 °F 94% 29.92 in 10.0 mi West 5.8 mph - N/A   Clear
9:35 PM 55.4 °F 53.6 °F 94% 29.92 in 10.0 mi West 5.8 mph - N/A   Mostly Cloudy
9:55 PM 55.4 °F 55.4 °F 100% 29.93 in 10.0 mi West 4.6 mph - N/A   Overcast
10:15 PM 55.4 °F 55.4 °F 100% 29.94 in 10.0 mi SW 3.5 mph - N/A   Overcast
10:35 PM 55.4 °F 55.4 °F 100% 29.94 in 10.0 mi WSW 3.5 mph - N/A   Overcast
10:55 PM 55.4 °F 55.4 °F 100% 29.95 in 10.0 mi South 4.6 mph - N/A   Overcast
11:15 PM 55.4 °F 53.6 °F 94% 29.95 in 10.0 mi Calm Calm - N/A   Overcast
11:35 PM 55.4 °F 55.4 °F 100% 29.95 in 10.0 mi NW 3.5 mph - N/A   Overcast
11:55 PM 55.4 °F 53.6 °F 94% 29.96 in 10.0 mi WNW 3.5 mph - N/A   Overcast